ATLAS 5 CENTAUR DEB, 46660

Orbit data source: Space-Track

ATLAS 5 CENTAUR DEB, 46660 is space debris in HEO originally from a launch on Wed, 17 Oct 2018 UTC launched from the Air Force Eastern Test Range (AFETR). Debris objects in space refer to the collection of defunct objects orbiting the Earth. Examples of debris include non-operational satellites, rocket bodies, and fragments generated from explosions, collisions, or faulty payload assembly.

Loading next visibility...
Identifier
46660, 2018-079CN
Orbit
HEO
Country
Flag of USUS
Related business
Flag of USUnited Launch Alliance/Lockheed Martin (US)
Manufacturer
ULA Decatur
Mission
Spacecraft
Bus & Motor
Unknown
Mass
Unknown
Launch date (UTC)
2018-10-17 (7 years ago)
Launch vehicle
Unknown
Launch site
Air Force Eastern Test Range (AFETR)
Object type
Payload
Rocket body
Debris
Shape & HBR
Unknown shape, 1.1 m
Radar Cross Section
RCS unknown

Expand to show TLE details & history
Last TLE update: 2 days ago

TLE from 2 days ago
0 ATLAS 5 CENTAUR DEB
1 46660U 18079CN  26036.49579168 -.00000164  00000-0  00000-0 0  9995
2 46660  13.1223  52.0668 4622854 281.3552  31.6360  1.81097781  9583
Epoch: 2026-02-05T11:53Z
TLE epoch observation values (Epoch: 2026-02-05T11:53:56.401Z)
Latitude
0.00001°
Longitude
98.02726°
Altitude
14,108.074 km
Speed
4.989 km/s
True Right ascension
03h 28m 38s
True Declination
0° 00' 00"
Sunlit
Object was in daylight at epoch
Visualization orbit readout
Latitude
Unknown
Longitude
Unknown
Altitude
Unknown
Speed
Unknown
Apparent Right ascension
Unknown
Apparent Declination
Unknown
Sunlit
N/A
Visualization observer readout
Local Sidereal Time
16:22:48
Azimuth
Unknown
Elevation
Unknown
Doppler factor
Unknown
Orbital elements
Apogee altitude
35,199.214 km
Perigee altitude
8,910.772 km
Semi-major axis
28,433.13 km
Eccentricity
0.46229
Inclination
13.1223°
RAAN
52.0668°
Arg. of periapsis
281.3552°
True anomaly
78.49467°
Mean anomaly
31.636°
Eccentric anomaly
52.70793°
Mean motion
0.4527 °/min
Orbital period
795.24 mins
BSTAR
0
Loading maneuver chart data...
Computing Atmospheric mass density...

Documentation

Showing up to 5 results
|